Laredo, TX

5:58 PM CDT on April 23, 2017 (GMT -0500)
Laredo International

Weather History for KLRD - November, 2012

Change the Weather History Date:

Monday, November 19, 2012

  Actual Average Record
Temperature  
Mean Temperature 73 °F 64 °F  
Max Temperature 78 °F 75 °F 93 °F (2011)
Min Temperature 67 °F 54 °F 32 °F (1917)
Degree Days  
Heating Degree Days 0 4  
Month to date heating degree days 22 45  
Since 1 July heating degree days 35 57  
Cooling Degree Days 8 3  
Month to date cooling degree days 159 98  
Year to date cooling degree days 5030 4227  
Growing Degree Days 22 (Base 50)    
Moisture  
Dew Point 57 °F    
Average Humidity 60    
Maximum Humidity 66    
Minimum Humidity 54    
Precipitation  
Precipitation 0.00 in 0.04 in 2.24 in (1905)
Month to date precipitation 0.12 0.82  
Year to date precipitation 8.91 18.95  
Sea Level Pressure  
Sea Level Pressure 30.17 in    
Wind  
Wind Speed 8 mph (SE)    
Max Wind Speed 14 mph    
Max Gust Speed 16 mph    
Visibility 10 miles    
Events      
T = Trace of Precipitation, MM = Missing Value Source: NWS Daily Summary

Daily Weather History Graph

Daily Weather History Graph

Search for Another Location

Airport or City:

Trip Planner

Search our weather history database for the weather conditions in past years. The results will help you decide how hot, cold, wet, or windy it might be!

Date:

Astronomy

Nov. 19, 2012 Rise Set
Actual Time 7:02 AM CST 5:44 PM CST
Civil Twilight 6:37 AM CST 6:09 PM CST
Nautical Twilight 6:08 AM CST 6:37 PM CST
Astronomical Twilight 5:40 AM CST 7:05 PM CST
Moon 12:17 PM CST (11/19) 11:58 PM CST (11/19)
Length of Visible Light 11h 32m
Length of Day
10h 42m
Waxing Crescent, 41% of the Moon is Illuminated
Nov 19
Waxing Crescent
Nov 20
First Quarter
Nov 28
Full
Dec 6
Last Quarter
Dec 13
New

Hourly Weather History & Observations

Time (CST) Temp. Dew Point Humidity Pressure Visibility Wind Dir Wind Speed Gust Speed Precip Events Conditions
12:56 AM 68.9 °F 54.0 °F 59% 30.18 in 10.0 mi SSE 8.1 mph - N/A   Overcast
1:56 AM 68.9 °F 54.9 °F 61% 30.18 in 10.0 mi SE 9.2 mph - N/A   Overcast
2:56 AM 68.9 °F 55.9 °F 63% 30.17 in 10.0 mi SE 8.1 mph - N/A   Overcast
3:56 AM 68.0 °F 55.9 °F 65% 30.17 in 10.0 mi SE 9.2 mph - N/A   Overcast
4:56 AM 68.0 °F 55.9 °F 65% 30.15 in 10.0 mi SE 9.2 mph - N/A   Overcast
5:56 AM 68.0 °F 55.9 °F 65% 30.16 in 10.0 mi SE 9.2 mph - N/A   Overcast
6:56 AM 68.0 °F 55.9 °F 65% 30.19 in 10.0 mi ESE 5.8 mph - N/A   Mostly Cloudy
7:56 AM 68.0 °F 54.9 °F 63% 30.20 in 10.0 mi SE 6.9 mph - N/A   Overcast
8:56 AM 68.9 °F 54.9 °F 61% 30.22 in 10.0 mi SE 9.2 mph - N/A   Overcast
9:56 AM 70.9 °F 55.9 °F 59% 30.23 in 10.0 mi SSE 11.5 mph - N/A   Overcast
10:56 AM 72.9 °F 55.9 °F 55% 30.23 in 10.0 mi SSE 11.5 mph - N/A   Overcast
11:56 AM 74.8 °F 57.9 °F 55% 30.20 in 10.0 mi South 13.8 mph - N/A   Overcast
12:56 PM 75.9 °F 57.9 °F 54% 30.17 in 10.0 mi South 9.2 mph - N/A   Overcast
1:56 PM 77.0 °F 59.0 °F 54% 30.14 in 10.0 mi South 9.2 mph - N/A   Overcast
2:56 PM 77.9 °F 59.0 °F 52% 30.12 in 10.0 mi SSE 8.1 mph - N/A   Overcast
3:56 PM 77.0 °F 59.0 °F 54% 30.11 in 10.0 mi SE 8.1 mph - N/A   Overcast
4:56 PM 75.9 °F 59.0 °F 56% 30.12 in 10.0 mi SSE 8.1 mph - N/A   Overcast
5:56 PM 75.9 °F 59.0 °F 56% 30.14 in 10.0 mi SE 4.6 mph - N/A   Overcast
6:56 PM 73.9 °F 59.0 °F 59% 30.15 in 10.0 mi ESE 3.5 mph - N/A   Mostly Cloudy
7:56 PM 70.9 °F 57.9 °F 63% 30.17 in 10.0 mi Calm Calm - N/A   Clear
8:56 PM 70.9 °F 57.9 °F 63% 30.17 in 10.0 mi Calm Calm - N/A   Clear
9:56 PM 70.0 °F 56.8 °F 63% 30.18 in 10.0 mi SE 9.2 mph - N/A   Partly Cloudy
10:56 PM 68.9 °F 56.8 °F 65% 30.17 in 10.0 mi SE 8.1 mph - N/A   Clear
11:56 PM 66.9 °F 55.9 °F 68% 30.16 in 10.0 mi SE 8.1 mph - N/A   Clear